TimeAKST,TemperatureF,Dew PointF,Humidity,Sea Level PressureIn,VisibilityMPH,Wind Direction,Wind SpeedMPH,Gust SpeedMPH,PrecipitationIn,Events,Conditions,WindDirDegrees,DateUTC
12:53 AM,-8.0,-11.9,83,30.20,10.0,SSW,4.6,-,N/A,,Clear,210,2013-11-07 09:53:00
1:53 AM,-5.1,-9.9,80,30.17,10.0,Variable,5.8,-,N/A,,Clear,0,2013-11-07 10:53:00
2:53 AM,-9.9,-14.1,82,30.16,10.0,Calm,Calm,-,N/A,,Clear,0,2013-11-07 11:53:00
3:53 AM,-8.0,-11.9,83,30.12,10.0,SW,3.5,-,N/A,,Clear,220,2013-11-07 12:53:00
5:53 AM,-2.9,-6.0,87,30.10,10.0,East,3.5,-,N/A,,Clear,100,2013-11-07 14:53:00
6:53 AM,6.1,3.0,87,30.06,10.0,East,11.5,-,N/A,,Clear,90,2013-11-07 15:53:00
7:53 AM,10.0,6.1,84,30.04,10.0,East,10.4,-,N/A,,Clear,100,2013-11-07 16:53:00
8:53 AM,12.0,7.0,80,30.03,10.0,ESE,16.1,-,N/A,,Scattered Clouds,110,2013-11-07 17:53:00
9:53 AM,12.9,8.1,81,30.02,10.0,East,19.6,27.6,N/A,,Scattered Clouds,100,2013-11-07 18:53:00
10:53 AM,15.1,8.1,74,30.02,10.0,ESE,21.9,29.9,N/A,,Scattered Clouds,110,2013-11-07 19:53:00
11:53 AM,16.0,8.1,71,30.02,10.0,East,17.3,32.2,N/A,,Scattered Clouds,100,2013-11-07 20:53:00
12:53 PM,16.0,8.1,71,30.01,10.0,East,24.2,34.5,0.00,,Scattered Clouds,100,2013-11-07 21:53:00
1:00 PM,15.8,8.6,73,29.87,10.0,East,20.7,34.5,0.00,,Scattered Clouds,100,2013-11-07 22:00:00
1:53 PM,16.0,8.1,71,30.00,10.0,East,20.7,27.6,0.00,,Scattered Clouds,100,2013-11-07 22:53:00
2:53 PM,15.1,8.1,74,30.01,10.0,East,16.1,-,0.01,,Scattered Clouds,100,2013-11-07 23:53:00
3:53 PM,15.1,8.1,74,30.00,10.0,East,17.3,26.5,N/A,,Scattered Clouds,100,2013-11-08 00:53:00
4:53 PM,14.0,7.0,74,30.00,10.0,East,13.8,23.0,N/A,,Scattered Clouds,100,2013-11-08 01:53:00
5:53 PM,14.0,8.1,77,30.01,10.0,East,12.7,-,N/A,,Scattered Clouds,100,2013-11-08 02:53:00
6:02 PM,14.0,8.6,79,29.87,10.0,East,12.7,-,N/A,,Overcast,100,2013-11-08 03:02:00
6:53 PM,12.9,7.0,77,30.00,10.0,ESE,12.7,-,N/A,,Overcast,110,2013-11-08 03:53:00
7:53 PM,12.9,7.0,77,29.99,10.0,East,13.8,-,N/A,,Overcast,100,2013-11-08 04:53:00
8:53 PM,12.9,8.1,81,30.01,9.0,East,13.8,-,N/A,,Overcast,90,2013-11-08 05:53:00
9:53 PM,12.0,7.0,80,30.03,4.0,East,11.5,-,0.00,Snow,Light Snow,90,2013-11-08 06:53:00
10:53 PM,10.9,6.1,81,30.03,5.0,East,11.5,-,0.00,Snow,Light Snow,100,2013-11-08 07:53:00
11:53 PM,-0.9,-4.0,87,30.06,4.0,SW,5.8,-,0.00,Snow,Light Snow,230,2013-11-08 08:53:00